Weather Roundup
Issued by NWS Springfield, MO

Home | Current Version | Previous Version | Text Only | Print | Product List | Glossary On
Versions: 1 2 3 4 5 6 7 8 9 10 11 12 13 14 15 16 17 18 19 20 21 22 23 24 25 26 27 28 29 30 31 32 33 34 35 36 37 38 39 40 41 42 43 44 45 46 47 48 49 50
954
NZUS99 KSGF 271657
HRRSGF

HOURLY WEATHER
NATIONAL WEATHER SERVICE SPRINGFIELD MO
1200 PM CDT THU APR 27 2017

......SGF CWA......

CITY           SKY/WX    TMP DP  RH WIND       PRES   REMARKS
SPRINGFIELD    SUNNY     55  41  59 W9        29.81R
JOPLIN         MOSUNNY   58  44  60 W7        29.81F
ROLLA          PTSUNNY   50  41  71 W15       29.78R
OSAGE BEACH    MOSUNNY   52  39  62 W9        29.81S
BRANSON        PTSUNNY   55  39  54 W6        29.84R

......SURROUNDING SGF CWA......

CITY           SKY/WX    TMP DP  RH WIND       PRES   REMARKS
CHANUTE        SUNNY     56  39  53 VRB3      29.79F
PARSONS        SUNNY     56  38  50 NE6       29.79F
COFFEYVILLE    SUNNY     58  44  60 NE8       29.77F
EMPORIA        SUNNY     55  37  50 S7        29.77F
HARRISON AR    SUNNY     56  40  55 NW8       29.84R

......KANSAS AND MISSOURI......

CITY           SKY/WX    TMP DP  RH WIND       PRES   REMARKS
KANSAS CTY INT MOSUNNY   55  37  50 W12G21    29.77R
SEDALIA        CLOUDY    53  42  66 SW8       29.80R
ST JOSEPH      SUNNY     55  38  52 W9        29.76R
ST LOUIS       CLOUDY    50  39  66 W18       29.77R
WICHITA        PTSUNNY   57  41  55 SE8G17    29.75R
TOPEKA         SUNNY     55  36  48 SW8       29.77F
OLATHE         SUNNY     52  39  61 W8        29.78S

......TENNESSEE......

CITY           SKY/WX    TMP DP  RH WIND       PRES   REMARKS
MEMPHIS        NOT AVBL
NASHVILLE      PTSUNNY   64  55  72 W10       29.79R

......ARKANSAS.......

CITY           SKY/WX    TMP DP  RH WIND       PRES   REMARKS
FAYETTEVILLE   SUNNY     57  44  62 NE5       29.82F
FT SMITH       SUNNY     61  41  47 E7        29.83R
LITTLE ROCK    MOSUNNY   60  46  59 NE5       29.86F

......OKLAHOMA.......

CITY           SKY/WX    TMP DP  RH WIND       PRES   REMARKS
TULSA          PTSUNNY   61  44  53 S10       29.80R
PONCA CITY     MOSUNNY   62  43  49 S9G22     29.77R
MCALESTER      MOSUNNY   63  46  54 SE5       29.84S
OKLAHOMA CITY  CLOUDY    61  46  57 S12       29.75F

......IOWA............

CITY           SKY/WX    TMP DP  RH WIND       PRES   REMARKS
DES MOINES     NOT AVBL
QUAD CITIES    CLOUDY    43  34  70 W16G23    29.65R

......ILLINOIS........

CITY           SKY/WX    TMP DP  RH WIND       PRES   REMARKS
QUINCY         CLOUDY    46  39  76 W12       29.72R
CHICAGO        CLOUDY    46  37  71 W20G28    29.58R




USA.gov is the U.S. government's official web portal to all federal, state and local government web resources and services.